Tracking 19242 objects as of 16-Aug-2018
HD Live streaming from Space Station
objects crossing your sky now

AMC-2 (GE-2)

Track AMC-2 (GE-2) now!
AMC-2 (GE-2) is classified as:


NORAD ID: 24713
Int'l Code: 1997-002A
Perigee: 35,773.7 km
Apogee: 35,814.0 km
Inclination: 5.1 °
Period: 1,436.1 minutes
Semi major axis: 42164 km
RCS: 28.4382 m2 (large)
Launch date: January 30, 1997
Source: SOCIETE EUROPEENNE DES SATELLITES (SES)
Launch site: FRENCH GUIANA (FRGUI)

Broadcasting, business, cable; CONUS, Hawaii, Caribbean, southern Canada; 24 Ku- and 24 C-band
aabbcc
Your satellite tracking list
Your tracking list is empty




NASA's NSSDC Master Catalog

Two Line Element Set (TLE):
1 24713U 97002A   18227.54166836 -.00000237  00000-0  00000+0 0  9996
2 24713   5.1143  63.7950 0004770  75.5340 294.7091  1.00271439 29623
Source of the keplerian elements: AFSPC